Tracking 29892 objects as of 21-Nov-2024
HD Live streaming from Space Station
objects crossing your sky now

STARLINK-2062

Track STARLINK-2062 now!
10-day predictions
STARLINK-2062 is classified as:


NORAD ID: 47670
Int'l Code: 2021-012BC
Perigee: 501.2 km
Apogee: 502.8 km
Inclination: 53.1 °
Period: 94.5 minutes
Semi major axis: 6872 km
RCS: Unknown
Launch date: February 16, 2021
Source: United States (US)
Launch site: AIR FORCE EASTERN TEST RANGE (AFETR)
Your satellite tracking list
Your tracking list is empty




NASA's NSSDC Master Catalog

Two Line Element Set (TLE):
1 47670U 21012BC  24326.16667824  .00172044  00000-0  69337-2 0  9995
2 47670  53.0599  15.3058 0001132  72.1161  11.7989 15.23652123208403
Source of the keplerian elements: AFSPC